Salina, KS

6:51 PM CDT on October 01, 2016 (GMT -0500)
Salina Municipal

Weather History for KSLN - March, 2014

Change the Weather History Date:

Saturday, March 22, 2014

  Actual Average Record
Temperature  
Mean Temperature 37 °F 48 °F  
Max Temperature 46 °F 59 °F 93 °F (1907)
Min Temperature 27 °F 36 °F 10 °F (1914)
Degree Days  
Heating Degree Days 28 18  
Month to date heating degree days 556 463  
Since 1 July heating degree days 4806 4304  
Cooling Degree Days 0 0  
Month to date cooling degree days 0 0  
Year to date cooling degree days 0 0  
Moisture  
Dew Point 16 °F    
Average Humidity 45    
Maximum Humidity 70    
Minimum Humidity 20    
Precipitation  
Precipitation T in 0.08 in 1.05 in (1979)
Month to date precipitation 0.05 1.58  
Year to date precipitation 1.86 3.38  
Sea Level Pressure  
Sea Level Pressure 30.36 in    
Wind  
Wind Speed 17 mph (NNE)    
Max Wind Speed 26 mph    
Max Gust Speed 34 mph    
Visibility 10 miles    
Events Snow    
T = Trace of Precipitation, MM = Missing Value Source: NWS Daily Summary

Daily Weather History Graph

Daily Weather History Graph

Search for Another Location

Airport or City:

Trip Planner

Search our weather history database for the weather conditions in past years. The results will help you decide how hot, cold, wet, or windy it might be!

Date:

Astronomy

Mar. 22, 2014 Rise Set
Actual Time 7:30 AM CDT 7:44 PM CDT
Civil Twilight 7:04 AM CDT 8:11 PM CDT
Nautical Twilight 6:33 AM CDT 8:42 PM CDT
Astronomical Twilight 6:01 AM CDT 9:14 PM CDT
Moon 1:02 AM CDT (3/22) 11:18 AM CDT (3/22)
Length of Visible Light 13h 06m
Length of Day
12h 13m
Waning Gibbous, 65% of the Moon is Illuminated
Mar 22
Waning Gibbous
Mar 23
Last Quarter
Mar 30
New
Apr 7
First Quarter
Apr 15
Full

Hourly Weather History & Observations

Time (CDT) Temp. Windchill Dew Point Humidity Pressure Visibility Wind Dir Wind Speed Gust Speed Precip Events Conditions
12:53 AM 39.0 °F 29.9 °F 28.0 °F 65% 30.25 in 10.0 mi North 17.3 mph - 0.00 in   Clear
1:53 AM 37.9 °F 28.5 °F 27.0 °F 65% 30.26 in 9.0 mi North 17.3 mph - 0.00 in   Partly Cloudy
2:53 AM 35.1 °F 26.9 °F 26.1 °F 70% 30.27 in 10.0 mi North 11.5 mph - N/A   Clear
3:53 AM 35.1 °F 24.5 °F 23.0 °F 61% 30.27 in 10.0 mi NNE 18.4 mph 27.6 mph 0.00 in   Clear
4:53 AM 33.1 °F 22.2 °F 21.9 °F 64% 30.28 in 10.0 mi NNE 17.3 mph - N/A   Clear
5:53 AM 30.9 °F 20.2 °F 21.0 °F 67% 30.31 in 10.0 mi NNE 15.0 mph - N/A   Clear
6:53 AM 28.9 °F 17.7 °F 17.1 °F 61% 30.33 in 10.0 mi NNE 15.0 mph 23.0 mph N/A   Clear
7:53 AM 28.9 °F 17.7 °F 18.0 °F 64% 30.37 in 10.0 mi NNE 15.0 mph - N/A   Clear
8:53 AM 30.9 °F 19.8 °F 19.0 °F 61% 30.38 in 10.0 mi NNE 16.1 mph - N/A   Clear
9:53 AM 33.1 °F 23.0 °F 18.0 °F 54% 30.40 in 10.0 mi NE 15.0 mph - N/A   Clear
10:53 AM 36.0 °F 26.3 °F 17.1 °F 46% 30.39 in 10.0 mi North 16.1 mph - N/A   Clear
11:53 AM 39.0 °F 32.3 °F 12.9 °F 34% 30.38 in 10.0 mi NNE 10.4 mph 24.2 mph N/A   Clear
12:53 PM 41.0 °F 34.3 °F 9.0 °F 27% 30.36 in 10.0 mi NNE 11.5 mph 21.9 mph N/A   Clear
1:53 PM 44.1 °F 36.8 °F 10.0 °F 25% 30.35 in 10.0 mi NNE 16.1 mph - N/A   Clear
2:53 PM 45.0 °F 38.2 °F 10.0 °F 24% 30.30 in 10.0 mi ENE 15.0 mph 26.5 mph N/A   Clear
3:53 PM 45.0 °F 37.9 °F 10.0 °F 24% 30.29 in 10.0 mi NE 16.1 mph 24.2 mph 0.00 in   Mostly Cloudy
4:53 PM 44.1 °F 35.7 °F 6.1 °F 21% 30.30 in 10.0 mi NNE 20.7 mph - 0.00 in   Mostly Cloudy
5:53 PM 39.9 °F 30.2 °F 6.1 °F 25% 30.34 in 10.0 mi NNE 20.7 mph 29.9 mph 0.00 in   Overcast
6:53 PM 37.0 °F 26.2 °F 8.1 °F 30% 30.37 in 9.0 mi NNE 21.9 mph 29.9 mph 0.00 in Snow Light Snow
7:53 PM 33.1 °F 20.1 °F 14.0 °F 46% 30.42 in 10.0 mi North 25.3 mph - 0.00 in   Overcast
8:53 PM 32.0 °F 19.5 °F 12.9 °F 45% 30.47 in 10.0 mi North 21.9 mph - N/A   Overcast
9:53 PM 30.0 °F 16.9 °F 16.0 °F 56% 30.51 in 10.0 mi North 21.9 mph - N/A   Overcast
10:53 PM 28.0 °F 15.7 °F 18.0 °F 66% 30.54 in 10.0 mi North 17.3 mph - N/A   Overcast
11:53 PM 27.0 °F 14.3 °F 18.0 °F 69% 30.55 in 10.0 mi NNE 17.3 mph - N/A   Overcast